DELTA 1 DEB, 40759

Orbit data source: Space-Track

DELTA 1 DEB, 40759 is space debris in SSO originally from a launch on Thu, 29 Jul 1976 UTC launched from the Air Force Western Test Range (AFWTR). Debris objects in space refer to the collection of defunct objects orbiting the Earth. Examples of debris include non-operational satellites, rocket bodies, and fragments generated from explosions, collisions, or faulty payload assembly.

Loading next visibility...
Identifier
40759, 1976-077GC
Orbit
SSO
Country
Flag of USUS
Related business
Manufacturer
Unknown
Mission
Spacecraft
Bus & Motor
Unknown
Mass
Unknown
Launch date (UTC)
1976-07-29 (50 years ago)
Launch vehicle
Unknown
Launch site
Air Force Western Test Range (AFWTR)
Object type
Payload
Rocket body
Debris
Shape & HBR
Unknown shape, 0.1 m
Radar Cross Section
Small (<0.1 m²)

Expand to show TLE details & history
Last TLE update: 2 days ago

TLE from 2 days ago
0 DELTA 1 DEB
1 40759U 76077GC  26119.02570821 -.00000052  00000-0 -18191-4 0  9999
2 40759 102.1148 222.4992 0292016  55.3601 307.4643 12.66492189978788
Epoch: 2026-04-29T00:37Z
TLE epoch observation values (Epoch: 2026-04-29T00:37:01.189Z)
Latitude
Longitude
-3.74834°
Altitude
1,265.02 km
Speed
7.285 km/s
True Right ascension
14h 49m 59s
True Declination
0° 00' 00"
Sunlit
Object was in full shadow at epoch
Visualization orbit readout
Latitude
Unknown
Longitude
Unknown
Altitude
Unknown
Speed
Unknown
Apparent Right ascension
Unknown
Apparent Declination
Unknown
Sunlit
N/A
Visualization observer readout
Local Sidereal Time
18:13:32
Azimuth
Unknown
Elevation
Unknown
Doppler factor
Unknown
Orbital elements
Apogee altitude
1,620.759 km
Perigee altitude
1,166.853 km
Semi-major axis
7,771.943 km
Eccentricity
0.0292
Inclination
102.1148°
RAAN
222.4992°
Arg. of periapsis
55.3601°
True anomaly
304.74903°
Mean anomaly
307.4643°
Eccentric anomaly
306.11265°
Mean motion
3.16773 °/min
Orbital period
113.65 mins
BSTAR
-0.000018191
Loading maneuver chart data...
Computing Atmospheric mass density...
Loading historical data...
Loading historical data...
Loading historical data...
Loading historical data...
Loading historical data...
Loading historical data...
Loading historical data...

Documentation

Showing up to 5 results
|